Regional Weather Roundup
Issued by NWS

Home | Current Version | Previous Version | Graphics & Text | Print | Product List | Glossary On
Versions: 1 2 3 4 5 6 7 8 9 10 11 12 13 14 15 16 17 18 19 20 21 22 23 24 25 26 27 28 29 30 31 32 33 34 35 36 37 38 39 40 41 42 43 44 45 46 47 48 49 50
000
ASUS43 KBIS 312010
RWRND

NORTH DAKOTA REGIONAL WEATHER ROUNDUP
NATIONAL WEATHER SERVICE BISMARCK ND
300 PM CDT WED AUG 31 2016

NOTE: "FAIR" INDICATES FEW OR NO CLOUDS BELOW 12,000 FEET WITH NO
SIGNIFICANT WEATHER AND/OR OBSTRUCTIONS TO VISIBILITY.


NDZ001>003-009>011-017-312100-
NORTHWEST NORTH DAKOTA

CITY           SKY/WX    TMP DP  RH WIND       PRES   REMARKS
WILLISTON      SUNNY     90  58  33 SE13G23   30.04F
MINOT          MOSUNNY   83  60  45 SE14G26   30.14F
MINOT AFB      MOSUNNY   82  61  47 SE15      30.14F
$$

NDZ018>021-031>035-040>046-312100-
SOUTHWEST NORTH DAKOTA

CITY           SKY/WX    TMP DP  RH WIND       PRES   REMARKS
BISMARCK       SUNNY     80  61  52 E20       30.17F
DICKINSON      SUNNY     88  51  28 S24G35    30.09F
GARRISON         N/A     83  59  44 SE20G28   30.14F
HETTINGER ARPT SUNNY     88  57  34 S22G28    30.14F
$$

NDZ004>008-012>016-024-026-027-054-312100-
NORTHEAST NORTH DAKOTA

CITY           SKY/WX    TMP DP  RH WIND       PRES   REMARKS
GRAND FORKS    MOSUNNY   77  54  44 NE8       30.23F
GRND FRKS AFB  SUNNY     75  54  47 NE7       30.24F
DEVILS LAKE    SUNNY     75  52  44 SE13      30.24F
$$

NDZ022-023-025-028>030-036>039-047>053-312100-
SOUTHEAST NORTH DAKOTA

CITY           SKY/WX    TMP DP  RH WIND       PRES   REMARKS
FARGO          SUNNY     79  53  40 NE10      30.21F
JAMESTOWN      CLOUDY    76  56  49 SE5       30.22F
$$





USA.gov is the U.S. government's official web portal to all federal, state and local government web resources and services.